This is the latest recevied weather packets stored in our database for station/object HASTNG-WX. If no packets are shown the sender has not sent any weather packets the latest 10 day(s).
| Time | Temp. | Humidity | Pressure | Rain* | Wind** | Luminosity | Snow |
|---|---|---|---|---|---|---|---|
| 1777954531 | 16.67° C | 64% | 971 hPa | 0 mm | - | - | - |
| 1777953664 | 16.67° C | 64% | 971 hPa | 0 mm | - | - | - |
| 1777952728 | 17.22° C | 61% | 970.7 hPa | 0 mm | - | - | - |
| 1777951851 | 16.67° C | 58% | 970.5 hPa | 0 mm | - | - | - |
| 1777950931 | 16.67° C | 58% | 970.5 hPa | 0 mm | - | - | - |
| 1777950061 | 17.22° C | 58% | 970.5 hPa | 0 mm | - | - | - |
| 1777949131 | 17.22° C | 54% | 971.1 hPa | 0 mm | - | - | - |
| 1777948252 | 17.78° C | 56% | 971.2 hPa | 0 mm | - | - | - |
| 1777947331 | 18.33° C | 56% | 971.1 hPa | 0 mm | - | - | - |
| 1777946461 | 18.33° C | 56% | 971.1 hPa | 0 mm | - | - | - |
| 1777945531 | 17.78° C | 57% | 970.2 hPa | 0 mm | - | - | - |
| 1777944649 | 18.33° C | 57% | 970.2 hPa | 0 mm | - | - | - |
| 1777943731 | 17.78° C | 57% | 970.2 hPa | 0 mm | - | - | - |
| 1777942857 | 18.33° C | 57% | 970.2 hPa | 0 mm | - | - | - |
| 1777941931 | 18.89° C | 37% | 970.7 hPa | 0 mm | - | - | - |
| 1777941048 | 19.44° C | 41% | 971.5 hPa | 0 mm | - | - | - |
| 1777940130 | 20° C | 41% | 971.5 hPa | 0 mm | - | - | - |
| 1777939263 | 20.56° C | 41% | 971.5 hPa | 0 mm | - | - | - |
| 1777938331 | 21.11° C | 31% | 971.2 hPa | 0 mm | - | - | - |
| 1777937449 | 21.67° C | 31% | 971.2 hPa | 0 mm | - | - | - |
| 1777936530 | 21.67° C | 31% | 971.2 hPa | 0 mm | - | - | - |
| 1777935657 | 22.22° C | 31% | 971.2 hPa | 0 mm | - | - | - |
| 1777934731 | 22.78° C | 36% | 970.7 hPa | 0 mm | - | - | - |
| 1777933851 | 22.78° C | 36% | 971.1 hPa | 0 mm | - | - | - |
| 1777932930 | 22.78° C | 36% | 971.1 hPa | 0 mm | - | - | - |
* Rain latest hour (hover to see other rain measurements)
** Current wind speed in m/s (hover to see current wind gust speed)